Location: ??????
(38.0677°N, 22.9870°E)
Time: 15:50:58
(UTC+00:00)

CZ-2C R/B - Pass Details

Date: 07 August 2024
Orbit: 666 x 777 km, 98.4° (Epoch: 09 September)

Event Time Altitude Azimuth Distance (km) Brightness Sun altitude
Rises 01:18:43 0° 24° (NNE) 3,258 7.0 -23.3°
Reaches altitude 10° 01:21:17 10° 34° (NE) 2,332 6.1 -22.9°
Maximum altitude 01:25:51 31° 97° (E) 1,333 4.1 -22.3°
Enters shadow 01:30:01 12° 157° (SSE) 2,199 4.7 -21.7°
